New York JFK, NY

4:13 AM EDT on July 23, 2017 (GMT -0400)
Kennedy International

Weather History for KJFK - January, 2014

Change the Weather History Date:

Wednesday, January 29, 2014

  Actual Average Record
Temperature  
Mean Temperature 20 °F 33 °F  
Max Temperature 24 °F 39 °F 69 °F (2002)
Min Temperature 16 °F 26 °F 3 °F (1977)
Degree Days  
Heating Degree Days 45 32  
Month to date heating degree days 1049 939  
Since 1 July heating degree days 2691 2608  
Cooling Degree Days 0 0  
Month to date cooling degree days 0 0  
Year to date cooling degree days 0 0  
Moisture  
Dew Point 3 °F    
Average Humidity 57    
Maximum Humidity 80    
Minimum Humidity 34    
Precipitation  
Precipitation 0.05 in 0.10 in 0.69 in (1973)
Month to date precipitation 3.01 2.97  
Year to date precipitation 3.01 2.97  
Snow  
Snow 1.00 in 0.20 in 1.00 in (2014)
Month to date snowfall 17.0 5.8  
Since 1 July snowfall 23.9 10.7  
Snow Depth 2.00 in    
Sea Level Pressure  
Sea Level Pressure 30.20 in    
Wind  
Wind Speed 13 mph (WNW)    
Max Wind Speed 23 mph    
Max Gust Speed 29 mph    
Visibility 8 miles    
Events Snow    
T = Trace of Precipitation, MM = Missing Value Source: NWS Daily Summary

Daily Weather History Graph

Daily Weather History Graph

Search for Another Location

Airport or City:

Trip Planner

Search our weather history database for the weather conditions in past years. The results will help you decide how hot, cold, wet, or windy it might be!

Date:

Astronomy

Jan. 29, 2014 Rise Set
Actual Time 7:07 AM EST 5:09 PM EST
Civil Twilight 6:38 AM EST 5:38 PM EST
Nautical Twilight 6:05 AM EST 6:11 PM EST
Astronomical Twilight 5:33 AM EST 6:43 PM EST
Moon 5:42 AM EST (1/29) 4:05 PM EST (1/29)
Length of Visible Light 10h 59m
Length of Day
10h 01m
Waning Crescent, 2% of the Moon is Illuminated
Jan 29
Waning Crescent
Jan 30
New
Feb 6
First Quarter
Feb 14
Full
Feb 22
Last Quarter

Hourly Weather History & Observations

Time (EST) Temp. Windchill Dew Point Humidity Pressure Visibility Wind Dir Wind Speed Gust Speed Precip Events Conditions
12:51 AM 17.1 °F 7.6 °F 8.1 °F 68% 30.24 in 6.0 mi West 6.9 mph - 0.00 in Snow Light Snow
1:51 AM 17.1 °F 6.6 °F 8.1 °F 68% 30.23 in 4.0 mi West 8.1 mph - 0.00 in Snow Light Snow
2:32 AM 17.6 °F 6.4 °F 8.6 °F 68% 30.21 in 3.0 mi NW 9.2 mph - 0.01 in Snow Light Snow
2:46 AM 15.8 °F 3.4 °F 8.6 °F 73% 30.21 in 2.5 mi NW 10.4 mph - 0.01 in Snow Light Snow
2:51 AM 17.1 °F 5.0 °F 9.0 °F 71% 30.21 in 2.5 mi WNW 10.4 mph - 0.01 in Snow Light Snow
3:51 AM 16.0 °F 5.3 °F 10.0 °F 77% 30.18 in 2.5 mi NNW 8.1 mph - 0.02 in Snow Light Snow
4:51 AM 16.0 °F 2.9 °F 10.0 °F 77% 30.15 in 2.5 mi NNW 11.5 mph - 0.01 in Snow Light Snow
5:42 AM 15.8 °F 6.1 °F 10.4 °F 79% 30.17 in 4.0 mi NW 6.9 mph - 0.01 in Snow Light Snow
5:51 AM 16.0 °F 5.3 °F 10.0 °F 77% 30.16 in 5.0 mi NNW 8.1 mph - 0.01 in Snow Light Snow
6:51 AM 16.0 °F 3.6 °F 8.1 °F 71% 30.18 in 10.0 mi NW 10.4 mph - 0.00 in   Overcast
7:51 AM 16.0 °F 2.9 °F 3.9 °F 59% 30.19 in 10.0 mi NW 11.5 mph - N/A   Mostly Cloudy
8:51 AM 18.0 °F 3.6 °F -0.0 °F 45% 30.19 in 10.0 mi NW 15.0 mph 21.9 mph N/A   Mostly Cloudy
9:51 AM 17.1 °F 2.0 °F -4.0 °F 39% 30.20 in 10.0 mi WNW 16.1 mph - N/A   Scattered Clouds
10:51 AM 19.9 °F 6.7 °F -4.0 °F 35% 30.19 in 10.0 mi NW 13.8 mph - N/A   Scattered Clouds
11:51 AM 21.0 °F 8.6 °F -0.9 °F 38% 30.18 in 10.0 mi WNW 12.7 mph - N/A   Scattered Clouds
12:51 PM 21.9 °F 9.8 °F -0.9 °F 37% 30.15 in 10.0 mi WNW 12.7 mph 18.4 mph N/A   Partly Cloudy
1:51 PM 23.0 °F 11.1 °F -0.9 °F 35% 30.13 in 10.0 mi West 12.7 mph - N/A   Partly Cloudy
2:51 PM 21.9 °F 8.2 °F 1.9 °F 42% 30.13 in 10.0 mi WSW 16.1 mph - N/A   Partly Cloudy
3:51 PM 23.0 °F 9.6 °F -2.9 °F 32% 30.14 in 10.0 mi West 16.1 mph - N/A   Partly Cloudy
4:51 PM 21.0 °F 5.4 °F -0.0 °F 40% 30.15 in 10.0 mi WSW 20.7 mph - N/A   Partly Cloudy
5:51 PM 21.0 °F 5.7 °F -0.9 °F 38% 30.19 in 10.0 mi WSW 19.6 mph - N/A   Partly Cloudy
6:51 PM 21.0 °F 5.4 °F -0.9 °F 38% 30.22 in 10.0 mi West 20.7 mph 27.6 mph N/A   Partly Cloudy
7:51 PM 21.0 °F 7.6 °F -0.9 °F 38% 30.25 in 10.0 mi West 15.0 mph 24.2 mph N/A   Partly Cloudy
8:51 PM 19.9 °F 5.7 °F -2.0 °F 38% 30.26 in 10.0 mi West 16.1 mph - N/A   Partly Cloudy
9:51 PM 19.9 °F 7.3 °F -2.0 °F 38% 30.29 in 10.0 mi West 12.7 mph - N/A   Partly Cloudy
10:51 PM 19.0 °F 5.6 °F -0.0 °F 43% 30.30 in 10.0 mi West 13.8 mph - N/A   Clear
11:51 PM 18.0 °F 6.1 °F -0.0 °F 45% 30.32 in 10.0 mi West 10.4 mph - N/A   Clear